Location: North Evanston
(42.0634°N, 87.6976°W)
Time: 21:11:43
(UTC+00:00)

Transit 2A - Pass Details

Date: 10 May 2026
Orbit: 595 x 948 km, 66.7° (Epoch: 9 June)

Event Time Altitude Azimuth Distance (km) Brightness Sun altitude
Rises 08:42:13 0° 318° (NW) 3,143 9.2 -17.9°
Reaches altitude 10° 08:45:02 10° 305° (NW) 2,155 8.2 -17.6°
Enters shadow 08:48:11 23° 266° (W) 1,397 6.9 -17.1°
Maximum altitude 08:48:53 24° 252° (WSW) 1,353 - -17.1°
Drops below altitude 10° 08:52:30 10° 198° (SSW) 2,001 - -16.6°
Sets 08:55:01 0° 185° (S) 2,867 - -16.2°
